Weather History for Sisseton, SD

Change the Weather History Date:

Thursday, November 15, 2012

  Actual Average Record
Temperature  
Mean Temperature 30 °F 31 °F  
Max Temperature 42 °F 41 °F 74 °F (1953)
Min Temperature 17 °F 22 °F -3 °F (1932)
Degree Days  
Heating Degree Days 35 34  
Month to date heating degree days 466 449  
Since 1 July heating degree days 1339 1276  
Cooling Degree Days 0 0  
Month to date cooling degree days 0 0  
Year to date cooling degree days 712 527  
Moisture  
Dew Point 22 °F    
Average Humidity 65    
Maximum Humidity 85    
Minimum Humidity 44    
Precipitation  
Precipitation 0.00 in 0.02 in 0.80 in (1947)
Month to date precipitation 0.26 0.40  
Year to date precipitation 16.76 21.76  
Snow  
Snow 0.00 in - - ()
Month to date snowfall T  
Since 1 July snowfall T  
Snow Depth 0.00 in    
Sea Level Pressure  
Sea Level Pressure 30.37 in    
Wind  
Wind Speed 11 mph (NNW)    
Max Wind Speed 20 mph    
Max Gust Speed 24 mph    
T = Trace of Precipitation, MM = Missing Value Source: NWS Daily Summary

Daily Weather History Graph

Daily Weather History Graph

Search for Another Location

Airport:

Trip Planner

Search our weather history database for the weather conditions in past years. The results will help you decide how hot, cold, wet, or windy it might be!

Date:

Astronomy

Nov. 15, 2012 Rise Set
Actual Time 7:28 AM CST 4:56 PM CST
Civil Twilight 6:55 AM CST 5:28 PM CST
Nautical Twilight 6:19 AM CST 6:04 PM CST
Astronomical Twilight 5:44 AM CST 6:40 PM CST
Moon 9:28 AM CST (11/15) 6:45 PM CST (11/15)
Length of Visible Light 10h 32m
Length of Day
9h 28m
Waxing Crescent, 5% of the Moon is Illuminated
Nov 15
Waxing Crescent
Nov 20
First Quarter
Nov 28
Full
Dec 6
Last Quarter
Dec 13
New

Hourly Weather History & Observations

Time (CST) Temp. Windchill Dew Point Humidity Pressure Visibility Wind Dir Wind Speed Gust Speed Precip Events Conditions
12:56 AM 42.1 °F 34.5 °F 30.0 °F 62% 30.07 in - West 15.0 mph 23.0 mph N/A   Unknown
1:56 AM 39.0 °F 34.0 °F 30.0 °F 70% 30.09 in - WNW 6.9 mph - N/A   Unknown
2:56 AM 39.9 °F 32.1 °F 32.0 °F 73% 30.12 in - NW 13.8 mph - N/A   Unknown
3:56 AM 37.0 °F 28.9 °F 30.0 °F 76% 30.14 in - NNW 12.7 mph - N/A   Unknown
4:56 AM 36.0 °F 27.1 °F 28.9 °F 76% 30.17 in - NNW 13.8 mph - N/A   Unknown
5:56 AM 34.0 °F 24.2 °F 28.0 °F 79% 30.22 in - NNW 15.0 mph - N/A   Unknown
6:56 AM 30.9 °F 19.8 °F 27.0 °F 85% 30.27 in - NNW 16.1 mph - N/A   Unknown
7:56 AM 30.0 °F 19.1 °F 26.1 °F 85% 30.32 in - NNW 15.0 mph - N/A   Unknown
8:56 AM 32.0 °F 22.1 °F 26.1 °F 79% 30.35 in - NNW 13.8 mph - N/A   Unknown
9:56 AM 34.0 °F 23.4 °F 23.0 °F 64% 30.38 in - North 17.3 mph - N/A   Unknown
10:56 AM 35.1 °F 24.5 °F 21.9 °F 59% 30.41 in - North 18.4 mph - N/A   Unknown
11:56 AM 36.0 °F 26.7 °F 21.9 °F 57% 30.42 in - North 15.0 mph - N/A   Unknown
12:56 PM 37.0 °F 27.4 °F 21.9 °F 54% 30.43 in - North 17.3 mph - N/A   Unknown
1:56 PM 37.0 °F 28.5 °F 19.9 °F 50% 30.44 in - North 13.8 mph - N/A   Unknown
2:56 PM 37.0 °F 28.5 °F 17.1 °F 44% 30.44 in - North 13.8 mph - N/A   Unknown
3:56 PM 36.0 °F 27.1 °F 16.0 °F 44% 30.47 in - North 13.8 mph - N/A   Unknown
4:56 PM 28.9 °F 21.9 °F 18.0 °F 64% 30.49 in - North 6.9 mph - N/A   Unknown
5:56 PM 24.1 °F 18.2 °F 16.0 °F 71% 30.51 in - North 4.6 mph - N/A   Unknown
6:56 PM 21.9 °F 15.7 °F 16.0 °F 78% 30.52 in - NNW 4.6 mph - N/A   Unknown
7:56 PM 24.1 °F - 16.0 °F 71% 30.53 in - Calm Calm - N/A   Unknown
8:56 PM 19.9 °F - 15.1 °F 81% 30.54 in - Calm Calm - N/A   Unknown
9:56 PM 19.9 °F 14.9 °F 15.1 °F 81% 30.54 in - WSW 3.5 mph - N/A   Unknown
10:56 PM 18.0 °F - 14.0 °F 84% 30.54 in - Calm Calm - N/A   Unknown
11:56 PM 18.0 °F 9.8 °F 15.1 °F 88% 30.55 in - SW 5.8 mph - N/A   Unknown